Погода в Блюдчанском

Россия / Новосибирская область     55°06′52″N   76°53′11″E
темп.,
°C
ветер,
м/с
пор.,
м/с
влажн.,
%
обл.,
%
осадки,
мм/ч
давл.,
гПа
погр.,
м
26 января, вт
вт2601:00−28юв3310098 0.1 103741
04:00−28юв23100100 0.0 103720
07:00−25юв2497100 0.0 1037139
10:00−24ююв3698100 0.2 1036217
13:00−22ююв4697100 0.4 1035249
16:00−20ююв5897100 0.3 1033261
19:00−18ююв5996100 0.6 1031298
22:00−16ю5995100 0.6 1029288
27 января, ср
ср2701:00−14ююз489599 0.9 1027212
04:00−8юз5109594 0.3 1025270
07:00−4зюз7149394 0.4 1024471
10:00−3зюз71394100 0.1 1023512
13:00−3зюз81192100 0.1 1024576
16:00−5з71090100 0.1 1024653
19:00−5з51093100 0.2 1026497
22:00−5з51094100 0.1 1027460
28 января, чт
чт2801:00−5з4895100 0.2 1028327
04:00−7з489696 0.1 1029157
07:00−8зюз379698 0.1 1029184
10:00−6зюз61094100 0.1 1029474
13:00−7зюз61293100 0.2 1029455
16:00−3зюз71190100 0.1 1027758
19:00−4зюз81491100 0.2 1026530
22:00−4зюз81393100 0.0 1024493
29 января, пт
пт2901:00−4зюз81591100 0.1 1022513
04:00−4зюз91688100 0.0 1021539
07:00−5з81490100 0.0 1022539
10:00−6з61292100 0.0 1022458
13:00−5з61093100 0.1 1023443
16:00−5з6995100 0.2 1024476
19:00−6з5995100 0.8 1025386
22:00−7з4995100 0.2 1026294
30 января, сб
сб3001:00−8з3795100 0.3 1028161
04:00−10ссв5795100 0.1 1030237
07:00−19св5794100 0.1 1032204
10:00−22всв5793100 0.1 1034219
13:00−23всв5792100 0.1 1035225
16:00−22в5793100 0.0 1034237
19:00−22в6995100 0.0 1033233
22:00−21в61198100 0.1 1032266